| time (UTC) | temp C | wind direction | speed KPH | gust KPH | rain 1hr cm | rain 24hr cm | rain mn cm | humidity % | barometer mb |
| 20260507211724 | 16 | 190 | 4.8 | 0.0 | 0.00 | 0.00 | 0.00 | 43 | |
| 20260507210724 | 16 | 174 | 0.0 | 0.0 | 0.00 | 0.00 | 0.00 | 44 | |
| 20260507205724 | 15 | 235 | 4.8 | 0.0 | 0.00 | 0.00 | 0.00 | 43 | |
| 20260507204724 | 16 | 202 | 3.2 | 0.0 | 0.00 | 0.00 | 0.00 | 44 | |
| 20260507203723 | 16 | 202 | 4.8 | 0.0 | 0.00 | 0.00 | 0.00 | 44 | |
| 20260507202723 | 16 | 170 | 3.2 | 0.0 | 0.00 | 0.00 | 0.00 | 46 | |
| 20260507201723 | 16 | 218 | 3.2 | 0.0 | 0.00 | 0.00 | 0.00 | 45 | |
| 20260507200723 | 16 | 194 | 6.4 | 0.0 | 0.00 | 0.00 | 0.00 | 46 | |
| 20260507195723 | 16 | 219 | 8.0 | 0.0 | 0.00 | 0.00 | 0.00 | 43 | |
| 20260507194723 | 16 | 208 | 4.8 | 0.0 | 0.00 | 0.00 | 0.00 | 43 | |
| 20260507193723 | 16 | 249 | 3.2 | 0.0 | 0.00 | 0.00 | 0.00 | 44 | |
| 20260507192652 | 16 | 173 | 3.2 | 0.0 | 0.00 | 0.00 | 0.00 | 43 | |
| 20260507191652 | 16 | 194 | 8.0 | 0.0 | 0.00 | 0.00 | 0.00 | 42 | |
| 20260507190652 | 16 | 180 | 0.0 | 0.0 | 0.00 | 0.00 | 0.00 | 47 | |
| 20260507185652 | 16 | 193 | 6.4 | 0.0 | 0.00 | 0.00 | 0.00 | 44 | |
| 20260507184653 | 16 | 181 | 0.0 | 0.0 | 0.00 | 0.00 | 0.00 | 44 | |
| 20260507183653 | 16 | 257 | 4.8 | 0.0 | 0.00 | 0.00 | 0.00 | 44 | |
| 20260507182652 | 16 | 259 | 0.0 | 0.0 | 0.00 | 0.00 | 0.00 | 45 | |
| 20260507181652 | 16 | 193 | 1.6 | 0.0 | 0.00 | 0.00 | 0.00 | 42 | |
| 20260507180652 | 16 | 197 | 4.8 | 0.0 | 0.00 | 0.00 | 0.00 | 44 | |
| 20260507175652 | 16 | 169 | 4.8 | 0.0 | 0.00 | 0.00 | 0.00 | 43 | |
| 20260507174652 | 16 | 239 | 0.0 | 0.0 | 0.00 | 0.00 | 0.00 | 47 | |
| 20260507173652 | 16 | 167 | 3.2 | 0.0 | 0.00 | 0.00 | 0.00 | 47 | |
| 20260507172652 | 15 | 259 | 3.2 | 0.0 | 0.00 | 0.00 | 0.00 | 47 | |
| 20260507171627 | 15 | 166 | 1.6 | 0.0 | 0.00 | 0.00 | 0.00 | 51 | |
| 20260507170627 | 15 | 193 | 3.2 | 0.0 | 0.00 | 0.00 | 0.00 | 47 | |
| 20260507165627 | 15 | 212 | 4.8 | 0.0 | 0.00 | 0.00 | 0.00 | 48 | |
| 20260507164627 | 15 | 190 | 3.2 | 0.0 | 0.00 | 0.00 | 0.00 | 49 | |
| 20260507163627 | 15 | 219 | 0.0 | 0.0 | 0.00 | 0.00 | 0.00 | 49 | |
| 20260507162626 | 15 | 83 | 0.0 | 0.0 | 0.00 | 0.00 | 0.00 | 50 | |
| 20260507161626 | 15 | 122 | 0.0 | 0.0 | 0.00 | 0.00 | 0.00 | 49 | |
| 20260507160626 | 14 | 174 | 4.8 | 0.0 | 0.00 | 0.00 | 0.00 | 52 | |
| 20260507155626 | 15 | 131 | 0.0 | 0.0 | 0.00 | 0.00 | 0.00 | 53 | |
| 20260507154626 | 15 | 226 | 4.8 | 0.0 | 0.00 | 0.00 | 0.00 | 52 | |
| 20260507153626 | 13 | 201 | 4.8 | 0.0 | 0.00 | 0.00 | 0.00 | 55 | |
| 20260507152626 | 13 | 201 | 0.0 | 0.0 | 0.00 | 0.00 | 0.00 | 54 | |
| 20260507151626 | 13 | 212 | 3.2 | 0.0 | 0.00 | 0.00 | 0.00 | 56 | |
| 20260507150625 | 13 | 232 | 0.0 | 0.0 | 0.00 | 0.00 | 0.00 | 54 | |
| 20260507145625 | 12 | 218 | 0.0 | 0.0 | 0.00 | 0.00 | 0.00 | 56 | |
| 20260507144625 | 12 | 217 | 0.0 | 0.0 | 0.00 | 0.00 | 0.00 | 58 | |
| 20260507143625 | 12 | 212 | 4.8 | 0.0 | 0.00 | 0.00 | 0.00 | 56 | |
| 20260507142625 | 12 | 212 | 4.8 | 0.0 | 0.00 | 0.00 | 0.00 | 61 | |
| 20260507141624 | 11 | 187 | 0.0 | 0.0 | 0.00 | 0.00 | 0.00 | 66 | |
| 20260507140624 | 11 | 187 | 0.0 | 0.0 | 0.00 | 0.00 | 0.00 | 64 | |
| 20260507135624 | 11 | 214 | 3.2 | 0.0 | 0.00 | 0.00 | 0.00 | 66 | |
| 20260507134624 | 10 | 170 | 0.0 | 0.0 | 0.00 | 0.00 | 0.00 | 65 | |
| 20260507133624 | 10 | 158 | 0.0 | 0.0 | 0.00 | 0.00 | 0.00 | 67 | |
| 20260507132624 | 10 | 177 | 0.0 | 0.0 | 0.00 | 0.00 | 0.00 | 66 | |
| 20260507131624 | 10 | 215 | 0.0 | 0.0 | 0.00 | 0.00 | 0.00 | 69 | |
| 20260507130623 | 10 | 224 | 1.6 | 0.0 | 0.00 | 0.00 | 0.00 | 71 | |
| 20260507125623 | 10 | 205 | 0.0 | 0.0 | 0.00 | 0.00 | 0.00 | 71 | |
| 20260507124623 | 10 | 205 | 0.0 | 0.0 | 0.00 | 0.00 | 0.00 | 72 | |
| 20260507123623 | 10 | 205 | 0.0 | 0.0 | 0.00 | 0.00 | 0.00 | 72 | |
| 20260507122623 | 9 | 205 | 0.0 | 0.0 | 0.00 | 0.00 | 0.00 | 73 | |
| 20260507121623 | 9 | 205 | 0.0 | 0.0 | 0.00 | 0.00 | 0.00 | 72 | |
| 20260507120622 | 9 | 205 | 0.0 | 0.0 | 0.00 | 0.00 | 0.00 | 74 | |
| 20260507115622 | 9 | 205 | 0.0 | 0.0 | 0.00 | 0.00 | 0.00 | 40 | |
| 20260507114622 | 8 | 205 | 0.0 | 0.0 | 0.00 | 0.00 | 0.00 | 77 | |
| 20260507113622 | 8 | 205 | 0.0 | 0.0 | 0.00 | 0.00 | 0.00 | 78 | |
| 20260507112622 | 8 | 205 | 0.0 | 0.0 | 0.00 | 0.00 | 0.00 | 80 | |
| 20260507111552 | 8 | 205 | 0.0 | 0.0 | 0.00 | 0.00 | 0.00 | 81 | |
| 20260507110551 | 8 | 205 | 0.0 | 0.0 | 0.00 | 0.00 | 0.00 | 83 | |
| 20260507105551 | 8 | 205 | 0.0 | 0.0 | 0.00 | 0.00 | 0.00 | 84 | |
| 20260507104551 | 8 | 205 | 0.0 | 0.0 | 0.00 | 0.00 | 0.00 | 84 | |
| 20260507103551 | 8 | 205 | 0.0 | 0.0 | 0.00 | 0.00 | 0.00 | 84 | |
| 20260507102551 | 9 | 205 | 0.0 | 0.0 | 0.00 | 0.00 | 0.00 | 84 | |
| 20260507101551 | 9 | 205 | 0.0 | 0.0 | 0.00 | 0.00 | 0.00 | 83 | |
| 20260507100551 | 9 | 205 | 0.0 | 0.0 | 0.00 | 0.00 | 0.00 | 85 | |
| 20260507095551 | 9 | 205 | 0.0 | 0.0 | 0.00 | 0.00 | 0.00 | 86 | |
| 20260507094550 | 9 | 205 | 0.0 | 0.0 | 0.00 | 0.00 | 0.00 | 86 | |
| 20260507093550 | 9 | 205 | 0.0 | 0.0 | 0.00 | 0.00 | 0.00 | 86 | |
| 20260507092550 | 9 | 205 | 0.0 | 0.0 | 0.00 | 0.00 | 0.00 | 87 | |
| 20260507091550 | 10 | 205 | 0.0 | 0.0 | 0.00 | 0.00 | 0.00 | 87 | |
| 20260507090550 | 9 | 205 | 0.0 | 0.0 | 0.00 | 0.00 | 0.00 | 86 | |
| 20260507085550 | 9 | 205 | 0.0 | 0.0 | 0.00 | 0.00 | 0.00 | 87 | |
| 20260507084549 | 10 | 205 | 0.0 | 0.0 | 0.00 | 0.00 | 0.00 | 87 | |
| 20260507083549 | 9 | 205 | 0.0 | 0.0 | 0.00 | 0.00 | 0.00 | 87 | |
| 20260507082549 | 10 | 205 | 0.0 | 0.0 | 0.00 | 0.00 | 0.00 | 87 | |
| 20260507081549 | 10 | 205 | 0.0 | 0.0 | 0.00 | 0.00 | 0.00 | 86 | |
| 20260507080549 | 10 | 205 | 0.0 | 0.0 | 0.00 | 0.00 | 0.00 | 86 | |
| 20260507075549 | 10 | 205 | 0.0 | 0.0 | 0.00 | 0.00 | 0.00 | 89 | |
| 20260507074548 | 10 | 205 | 0.0 | 0.0 | 0.00 | 0.00 | 0.00 | 91 | |
| 20260507073548 | 10 | 205 | 0.0 | 0.0 | 0.00 | 0.00 | 0.00 | 92 | |
| 20260507072548 | 10 | 205 | 0.0 | 0.0 | 0.00 | 0.00 | 0.00 | 92 | |
| 20260507071548 | 10 | 205 | 0.0 | 0.0 | 0.00 | 0.00 | 0.00 | 92 | |
| 20260507070548 | 10 | 205 | 0.0 | 0.0 | 0.00 | 0.00 | 0.00 | 92 | |
| 20260507065548 | 10 | 205 | 0.0 | 0.0 | 0.00 | 0.00 | 0.00 | 92 | |
| 20260507064548 | 10 | 205 | 0.0 | 0.0 | 0.00 | 0.00 | 0.00 | 92 | |
| 20260507063547 | 10 | 205 | 0.0 | 0.0 | 0.00 | 0.00 | 0.00 | 92 | |
| 20260507062547 | 10 | 205 | 0.0 | 0.0 | 0.00 | 0.00 | 0.00 | 92 | |
| 20260507061547 | 10 | 205 | 0.0 | 0.0 | 0.00 | 0.00 | 0.00 | 92 | |
| 20260507060547 | 10 | 205 | 0.0 | 0.0 | 0.00 | 0.00 | 0.00 | 91 | |
| 20260507055547 | 10 | 205 | 0.0 | 0.0 | 0.00 | 0.00 | 0.00 | 92 | |
| 20260507054517 | 10 | 205 | 0.0 | 0.0 | 0.00 | 0.00 | 0.00 | 91 | |
| 20260507053517 | 10 | 205 | 0.0 | 0.0 | 0.00 | 0.00 | 0.00 | 91 | |
| 20260507052516 | 10 | 205 | 0.0 | 0.0 | 0.00 | 0.00 | 0.00 | 92 | |
| 20260507051517 | 10 | 242 | 0.0 | 0.0 | 0.00 | 0.00 | 0.00 | 92 | |
| 20260507050516 | 10 | 242 | 0.0 | 0.0 | 0.00 | 0.00 | 0.00 | 92 | |
| 20260507045516 | 10 | 242 | 0.0 | 0.0 | 0.00 | 0.00 | 0.00 | 92 | |
| 20260507044516 | 10 | 242 | 0.0 | 0.0 | 0.00 | 0.00 | 0.00 | 92 | |
| 20260507043516 | 10 | 242 | 0.0 | 0.0 | 0.00 | 0.00 | 0.00 | 92 | |
| 20260507042516 | 10 | 225 | 1.6 | 0.0 | 0.00 | 0.00 | 0.00 | 93 | |
| 20260507041515 | 10 | 224 | 0.0 | 0.0 | 0.00 | 0.00 | 0.00 | 93 | |
| 20260507040445 | 10 | 224 | 0.0 | 0.0 | 0.00 | 0.00 | 0.00 | 93 | |
| 20260507035445 | 10 | 224 | 0.0 | 0.0 | 0.00 | 0.00 | 0.00 | 93 | |
| 20260507034445 | 10 | 224 | 0.0 | 0.0 | 0.00 | 0.00 | 0.00 | 93 | |
| 20260507033445 | 10 | 224 | 0.0 | 0.0 | 0.00 | 0.00 | 0.00 | 93 | |
| 20260507032444 | 10 | 224 | 0.0 | 0.0 | 0.00 | 0.00 | 0.00 | 93 | |
| 20260507031444 | 10 | 224 | 0.0 | 0.0 | 0.00 | 0.00 | 0.00 | 93 | |
| 20260507030444 | 10 | 224 | 0.0 | 0.0 | 0.00 | 0.00 | 0.00 | 92 | |
| 20260507025444 | 10 | 224 | 0.0 | 0.0 | 0.00 | 0.00 | 0.00 | 91 | |
| 20260507024444 | 11 | 224 | 0.0 | 0.0 | 0.00 | 0.00 | 0.00 | 90 | |
| 20260507023444 | 11 | 217 | 0.0 | 0.0 | 0.00 | 0.00 | 0.00 | 90 | |
| 20260507022444 | 11 | 217 | 0.0 | 0.0 | 0.00 | 0.00 | 0.00 | 90 | |
| 20260507021443 | 11 | 217 | 0.0 | 0.0 | 0.00 | 0.00 | 0.00 | 90 | |
| 20260507020443 | 11 | 202 | 0.0 | 0.0 | 0.00 | 0.00 | 0.00 | 90 | |
| 20260507015413 | 11 | 233 | 1.6 | 0.0 | 0.00 | 0.00 | 0.00 | 89 | |
| 20260507014413 | 11 | 225 | 0.0 | 0.0 | 0.00 | 0.00 | 0.00 | 88 | |
| 20260507013413 | 11 | 238 | 3.2 | 0.0 | 0.00 | 0.00 | 0.00 | 89 | |
| 20260507012413 | 11 | 215 | 1.6 | 0.0 | 0.00 | 0.00 | 0.00 | 89 | |
| 20260507011413 | 11 | 245 | 0.0 | 0.0 | 0.00 | 0.00 | 0.00 | 90 | |
| 20260507010413 | 12 | 214 | 0.0 | 0.0 | 0.00 | 0.00 | 0.00 | 89 | |
| 20260507005412 | 12 | 214 | 0.0 | 0.0 | 0.00 | 0.00 | 0.00 | 89 | |
| 20260507004412 | 12 | 214 | 0.0 | 0.0 | 0.00 | 0.00 | 0.00 | 89 | |
| 20260507003412 | 12 | 166 | 0.0 | 0.0 | 0.00 | 0.00 | 0.00 | 88 | |
| 20260507002412 | 12 | 166 | 0.0 | 0.0 | 0.00 | 0.00 | 0.00 | 88 | |
| 20260507001412 | 12 | 191 | 3.2 | 0.0 | 0.00 | 0.00 | 0.00 | 88 | |
| 20260507000412 | 12 | 186 | 0.0 | 0.0 | 0.00 | 0.00 | 0.00 | 88 | |
| 20260506235412 | 12 | 194 | 4.8 | 0.0 | 0.00 | 0.00 | 0.00 | 88 | |
| 20260506234411 | 12 | 200 | 4.8 | 0.0 | 0.00 | 0.00 | 0.00 | 89 | |
| 20260506233411 | 12 | 181 | 0.0 | 0.0 | 0.00 | 0.00 | 0.00 | 88 | |
| 20260506232411 | 12 | 195 | 0.0 | 0.0 | 0.00 | 0.00 | 0.00 | 89 | |
| 20260506231411 | 12 | 210 | 0.0 | 0.0 | 0.00 | 0.00 | 0.00 | 89 | |
| 20260506230411 | 12 | 219 | 0.0 | 0.0 | 0.00 | 0.00 | 0.00 | 88 | |
| 20260506225410 | 13 | 229 | 0.0 | 0.0 | 0.00 | 0.00 | 0.00 | 87 | |
| 20260506224410 | 13 | 231 | 1.6 | 0.0 | 0.00 | 0.00 | 0.00 | 87 | |
| 20260506223410 | 12 | 205 | 3.2 | 0.0 | 0.00 | 0.00 | 0.00 | 86 | |
| 20260506222410 | 13 | 207 | 3.2 | 0.0 | 0.00 | 0.00 | 0.00 | 86 | |
| 20260506221410 | 13 | 233 | 4.8 | 0.0 | 0.00 | 0.00 | 0.00 | 86 | |
| 20260506220410 | 13 | 207 | 3.2 | 0.0 | 0.00 | 0.00 | 0.00 | 87 | |
| 20260506215409 | 13 | 184 | 3.2 | 0.0 | 0.00 | 0.00 | 0.00 | 86 | |
| 20260506214409 | 13 | 169 | 1.6 | 0.0 | 0.00 | 0.00 | 0.00 | 86 | |
| 20260506213409 | 13 | 202 | 4.8 | 0.0 | 0.00 | 0.00 | 0.00 | 85 | |
| 20260506212409 | 13 | 218 | 6.4 | 0.0 | 0.00 | 0.00 | 0.00 | 85 |